owner,sensor,date,latitude,longitude,vertical_datum,direction_of_sea_water_velocity,sea_water_speed,upward_sea_water_velocity,qcFlag 
TABS,ioos:station:wmo:42051:1,2007-06-01T00:00:00Z,29.6350,-93.6417,2.0,274.7205468,21.8741857,-99999.0,'11111222,11111222,99999999' 
TABS,ioos:station:wmo:42051:1,2007-06-01T00:30:00Z,29.6350,-93.6417,2.0,270.8994941,22.94282459,-99999.0,'11111222,11111222,99999999' 
TABS,ioos:station:wmo:42051:1,2007-06-01T01:00:00Z,29.6350,-93.6417,2.0,270.3075584,20.52029483,-99999.0,'11111222,11111222,99999999' 
TABS,ioos:station:wmo:42051:1,2007-06-01T01:30:00Z,29.6350,-93.6417,2.0,268.0151291,22.8136823,-99999.0,'11111222,11111222,99999999' 
TABS,ioos:station:wmo:42051:1,2007-06-01T02:00:00Z,29.6350,-93.6417,2.0,266.9085275,25.77750376,-99999.0,'11111222,11111222,99999999' 
TABS,ioos:station:wmo:42051:1,2007-06-01T02:30:00Z,29.6350,-93.6417,2.0,258.8922629,29.95104339,-99999.0,'11111222,11111222,99999999' 
TABS,ioos:station:wmo:42051:1,2007-06-01T03:00:00Z,29.6350,-93.6417,2.0,265.290299,28.01457478,-99999.0,'11111222,11111222,99999999' 
TABS,ioos:station:wmo:42051:1,2007-06-01T03:30:00Z,29.6350,-93.6417,2.0,273.4795217,33.45165168,-99999.0,'11111222,11111222,99999999' 
TABS,ioos:station:wmo:42051:1,2007-06-01T04:00:00Z,29.6350,-93.6417,2.0,277.8913839,31.17519527,-99999.0,'11111222,11111222,99999999' 
TABS,ioos:station:wmo:42051:1,2007-06-01T04:30:00Z,29.6350,-93.6417,2.0,278.6938293,28.91216526,-99999.0,'11111222,11111222,99999999' 
TABS,ioos:station:wmo:42051:1,2007-06-01T05:00:00Z,29.6350,-93.6417,2.0,281.5650433,28.23315781,-99999.0,'11111222,11111222,99999999' 
TABS,ioos:station:wmo:42051:1,2007-06-01T05:30:00Z,29.6350,-93.6417,2.0,279.8862698,26.9095615,-99999.0,'11111222,11111222,99999999' 
TABS,ioos:station:wmo:42051:1,2007-06-01T06:00:00Z,29.6350,-93.6417,2.0,273.5805296,28.34531707,-99999.0,'11111222,11111222,99999999' 
TABS,ioos:station:wmo:42051:1,2007-06-01T06:30:00Z,29.6350,-93.6417,2.0,269.078718,43.55562535,-99999.0,'11111222,11111222,99999999' 
TABS,ioos:station:wmo:42051:1,2007-06-01T07:00:00Z,29.6350,-93.6417,2.0,265.7073165,50.37127952,-99999.0,'11111222,11111222,99999999' 
TABS,ioos:station:wmo:42051:1,2007-06-01T07:30:00Z,29.6350,-93.6417,2.0,263.150825,45.53492067,-99999.0,'11111222,11111222,99999999' 
TABS,ioos:station:wmo:42051:1,2007-06-01T08:00:00Z,29.6350,-93.6417,2.0,262.6970579,45.23692518,-99999.0,'11111222,11111222,99999999' 
TABS,ioos:station:wmo:42051:1,2007-06-01T08:30:00Z,29.6350,-93.6417,2.0,257.9596324,43.09805796,-99999.0,'11111222,11111222,99999999' 
TABS,ioos:station:wmo:42051:1,2007-06-01T09:00:00Z,29.6350,-93.6417,2.0,258.1989557,56.33054234,-99999.0,'11111222,11111222,99999999' 
TABS,ioos:station:wmo:42051:1,2007-06-01T09:30:00Z,29.6350,-93.6417,2.0,260.4493377,51.41255586,-99999.0,'11111222,11111222,99999999' 
TABS,ioos:station:wmo:42051:1,2007-06-01T10:00:00Z,29.6350,-93.6417,2.0,257.9025527,52.2502689,-99999.0,'11111222,11111222,99999999' 
TABS,ioos:station:wmo:42051:1,2007-06-01T10:30:00Z,29.6350,-93.6417,2.0,250.9757423,54.14737851,-99999.0,'11111222,11111222,99999999' 
TABS,ioos:station:wmo:42051:1,2007-06-01T11:00:00Z,29.6350,-93.6417,2.0,254.27376,53.05590731,-99999.0,'11111222,11111222,99999999' 
TABS,ioos:station:wmo:42051:1,2007-06-01T11:30:00Z,29.6350,-93.6417,2.0,251.7460989,56.92444554,-99999.0,'11111222,11111222,99999999' 
TABS,ioos:station:wmo:42051:1,2007-06-01T12:00:00Z,29.6350,-93.6417,2.0,246.5524231,52.04773386,-99999.0,'11111222,11111222,99999999' 
TABS,ioos:station:wmo:42051:1,2007-06-01T12:30:00Z,29.6350,-93.6417,2.0,248.0343309,59.72543595,-99999.0,'11111222,11111222,99999999' 
TABS,ioos:station:wmo:42051:1,2007-06-01T13:00:00Z,29.6350,-93.6417,2.0,247.6771335,58.39617111,-99999.0,'11111222,11111222,99999999' 
TABS,ioos:station:wmo:42051:1,2007-06-01T13:30:00Z,29.6350,-93.6417,2.0,249.8459482,53.66585972,-99999.0,'11111222,11111222,99999999' 
TABS,ioos:station:wmo:42051:1,2007-06-01T14:00:00Z,29.6350,-93.6417,2.0,241.8922033,58.81648153,-99999.0,'11111222,11111222,99999999' 
TABS,ioos:station:wmo:42051:1,2007-06-01T14:30:00Z,29.6350,-93.6417,2.0,243.8470721,57.15090638,-99999.0,'11111222,11111222,99999999' 
TABS,ioos:station:wmo:42051:1,2007-06-01T15:00:00Z,29.6350,-93.6417,2.0,242.0167954,60.91125101,-99999.0,'11111222,11111222,99999999' 
TABS,ioos:station:wmo:42051:1,2007-06-01T15:30:00Z,29.6350,-93.6417,2.0,241.8254448,61.63245006,-99999.0,'11111222,11111222,99999999' 
TABS,ioos:station:wmo:42051:1,2007-06-01T16:00:00Z,29.6350,-93.6417,2.0,244.5822252,57.38454322,-99999.0,'11111222,11111222,99999999' 
TABS,ioos:station:wmo:42051:1,2007-06-01T16:30:00Z,29.6350,-93.6417,2.0,248.8990385,57.38786631,-99999.0,'11111222,11111222,99999999' 
TABS,ioos:station:wmo:42051:1,2007-06-01T17:00:00Z,29.6350,-93.6417,2.0,250.935756,52.721507,-99999.0,'11111222,11111222,99999999' 
TABS,ioos:station:wmo:42051:1,2007-06-01T17:30:00Z,29.6350,-93.6417,2.0,249.5852679,53.00926806,-99999.0,'11111222,11111222,99999999' 
TABS,ioos:station:wmo:42051:1,2007-06-01T18:00:00Z,29.6350,-93.6417,2.0,248.3558468,64.79863347,-99999.0,'11111222,11111222,99999999' 
TABS,ioos:station:wmo:42051:1,2007-06-01T18:30:00Z,29.6350,-93.6417,2.0,246.6450297,62.20665318,-99999.0,'11111222,11111222,99999999' 
TABS,ioos:station:wmo:42051:1,2007-06-01T19:00:00Z,29.6350,-93.6417,2.0,248.7495638,67.34924647,-99999.0,'11111222,11111222,99999999' 
TABS,ioos:station:wmo:42051:1,2007-06-01T19:30:00Z,29.6350,-93.6417,2.0,249.2496937,69.51932825,-99999.0,'11111222,11111222,99999999' 
TABS,ioos:station:wmo:42051:1,2007-06-01T20:00:00Z,29.6350,-93.6417,2.0,250.0508145,75.64911235,-99999.0,'11111222,11111222,99999999' 
TABS,ioos:station:wmo:42051:1,2007-06-01T20:30:00Z,29.6350,-93.6417,2.0,251.2967163,72.35054181,-99999.0,'11111222,11111222,99999999' 
TABS,ioos:station:wmo:42051:1,2007-06-01T21:00:00Z,29.6350,-93.6417,2.0,250.3030856,70.37773796,-99999.0,'11111222,11111222,99999999' 
TABS,ioos:station:wmo:42051:1,2007-06-01T21:30:00Z,29.6350,-93.6417,2.0,252.4393481,64.63183736,-99999.0,'11111222,11111222,99999999' 
TABS,ioos:station:wmo:42051:1,2007-06-01T22:00:00Z,29.6350,-93.6417,2.0,254.1814414,63.09947781,-99999.0,'11111222,11111222,99999999' 
TABS,ioos:station:wmo:42051:1,2007-06-01T22:30:00Z,29.6350,-93.6417,2.0,255.6819726,55.80326962,-99999.0,'11111222,11111222,99999999' 
TABS,ioos:station:wmo:42051:1,2007-06-01T23:00:00Z,29.6350,-93.6417,2.0,260.6665187,44.45853124,-99999.0,'11111222,11111222,99999999' 
TABS,ioos:station:wmo:42051:1,2007-06-01T23:30:00Z,29.6350,-93.6417,2.0,261.0439894,42.01216014,-99999.0,'11111222,11111222,99999999' 
TABS,ioos:station:wmo:42051:1,2007-06-02T00:00:00Z,29.6350,-93.6417,2.0,261.9091063,38.86684062,-99999.0,'11111222,11111222,99999999' 
TABS,ioos:station:wmo:42051:1,2007-06-02T00:30:00Z,29.6350,-93.6417,2.0,270.3759009,33.57072087,-99999.0,'11111222,11111222,99999999' 
TABS,ioos:station:wmo:42051:1,2007-06-02T01:00:00Z,29.6350,-93.6417,2.0,278.6605185,30.88208866,-99999.0,'11111222,11111222,99999999' 
TABS,ioos:station:wmo:42051:1,2007-06-02T01:30:00Z,29.6350,-93.6417,2.0,285.1192687,32.09076658,-99999.0,'11111222,11111222,99999999' 
TABS,ioos:station:wmo:42051:1,2007-06-02T02:00:00Z,29.6350,-93.6417,2.0,294.0550998,32.16316216,-99999.0,'11111222,11111222,99999999' 
TABS,ioos:station:wmo:42051:1,2007-06-02T02:30:00Z,29.6350,-93.6417,2.0,291.0987557,29.05793695,-99999.0,'11111222,11111222,99999999' 
TABS,ioos:station:wmo:42051:1,2007-06-02T03:00:00Z,29.6350,-93.6417,2.0,295.3286422,30.45786926,-99999.0,'11111222,11111222,99999999' 
TABS,ioos:station:wmo:42051:1,2007-06-02T03:30:00Z,29.6350,-93.6417,2.0,292.1870469,27.06385043,-99999.0,'11111222,11111222,99999999' 
TABS,ioos:station:wmo:42051:1,2007-06-02T04:00:00Z,29.6350,-93.6417,2.0,296.2190517,28.11236027,-99999.0,'11111222,11111222,99999999' 
TABS,ioos:station:wmo:42051:1,2007-06-02T04:30:00Z,29.6350,-93.6417,2.0,294.724268,28.11741809,-99999.0,'11111222,11111222,99999999' 
TABS,ioos:station:wmo:42051:1,2007-06-02T05:00:00Z,29.6350,-93.6417,2.0,288.3739823,29.53569027,-99999.0,'11111222,11111222,99999999' 
TABS,ioos:station:wmo:42051:1,2007-06-02T05:30:00Z,29.6350,-93.6417,2.0,283.5693216,25.57380691,-99999.0,'11111222,11111222,99999999' 
TABS,ioos:station:wmo:42051:1,2007-06-02T06:00:00Z,29.6350,-93.6417,2.0,285.5033619,27.57320801,-99999.0,'11111222,11111222,99999999' 
TABS,ioos:station:wmo:42051:1,2007-06-02T06:30:00Z,29.6350,-93.6417,2.0,282.3623567,29.0536194,-99999.0,'11111222,11111222,99999999' 
TABS,ioos:station:wmo:42051:1,2007-06-02T07:00:00Z,29.6350,-93.6417,2.0,286.3910521,28.63367423,-99999.0,'11111222,11111222,99999999' 
TABS,ioos:station:wmo:42051:1,2007-06-02T07:30:00Z,29.6350,-93.6417,2.0,281.9810648,22.44899107,-99999.0,'11111222,11111222,99999999' 
TABS,ioos:station:wmo:42051:1,2007-06-02T08:00:00Z,29.6350,-93.6417,2.0,289.9142316,27.56843303,-99999.0,'11111222,11111222,99999999' 
TABS,ioos:station:wmo:42051:1,2007-06-02T08:30:00Z,29.6350,-93.6417,2.0,289.73535,25.64634867,-99999.0,'11111222,11111222,99999999' 
TABS,ioos:station:wmo:42051:1,2007-06-02T09:00:00Z,29.6350,-93.6417,2.0,296.0779937,33.64509623,-99999.0,'11111222,11111222,99999999' 
TABS,ioos:station:wmo:42051:1,2007-06-02T09:30:00Z,29.6350,-93.6417,2.0,292.7331844,34.72775979,-99999.0,'11111222,11111222,99999999' 
TABS,ioos:station:wmo:42051:1,2007-06-02T10:00:00Z,29.6350,-93.6417,2.0,286.7131728,32.40901109,-99999.0,'11111222,11111222,99999999' 
TABS,ioos:station:wmo:42051:1,2007-06-02T10:30:00Z,29.6350,-93.6417,2.0,281.6571868,28.5079638,-99999.0,'11111222,11111222,99999999' 
TABS,ioos:station:wmo:42051:1,2007-06-02T11:00:00Z,29.6350,-93.6417,2.0,275.4256346,26.97081756,-99999.0,'11111222,11111222,99999999' 
TABS,ioos:station:wmo:42051:1,2007-06-02T11:30:00Z,29.6350,-93.6417,2.0,258.2529452,32.41893891,-99999.0,'11111222,11111222,99999999' 
TABS,ioos:station:wmo:42051:1,2007-06-02T12:00:00Z,29.6350,-93.6417,2.0,254.4434884,40.23383775,-99999.0,'11111222,11111222,99999999' 
TABS,ioos:station:wmo:42051:1,2007-06-02T12:30:00Z,29.6350,-93.6417,2.0,243.9556735,40.81440064,-99999.0,'11111222,11111222,99999999' 
TABS,ioos:station:wmo:42051:1,2007-06-02T13:00:00Z,29.6350,-93.6417,2.0,241.59483,35.80001397,-99999.0,'11111222,11111222,99999999' 
TABS,ioos:station:wmo:42051:1,2007-06-02T13:30:00Z,29.6350,-93.6417,2.0,245.8434337,32.13385909,-99999.0,'11111222,11111222,99999999' 
TABS,ioos:station:wmo:42051:1,2007-06-02T14:00:00Z,29.6350,-93.6417,2.0,245.5744655,32.81705806,-99999.0,'11111222,11111222,99999999' 
TABS,ioos:station:wmo:42051:1,2007-06-02T14:30:00Z,29.6350,-93.6417,2.0,243.9618357,32.07551714,-99999.0,'11111222,11111222,99999999' 
TABS,ioos:station:wmo:42051:1,2007-06-02T15:00:00Z,29.6350,-93.6417,2.0,239.796412,33.3354016,-99999.0,'11111222,11111222,99999999' 
TABS,ioos:station:wmo:42051:1,2007-06-02T15:30:00Z,29.6350,-93.6417,2.0,257.8669515,27.45320564,-99999.0,'11111222,11111222,99999999' 
TABS,ioos:station:wmo:42051:1,2007-06-02T16:00:00Z,29.6350,-93.6417,2.0,247.8332851,30.02940226,-99999.0,'11111222,11111222,99999999' 
TABS,ioos:station:wmo:42051:1,2007-06-02T16:30:00Z,29.6350,-93.6417,2.0,254.801999,28.83855926,-99999.0,'11111222,11111222,99999999' 
TABS,ioos:station:wmo:42051:1,2007-06-02T17:00:00Z,29.6350,-93.6417,2.0,253.9545454,26.84578924,-99999.0,'11111222,11111222,99999999' 
TABS,ioos:station:wmo:42051:1,2007-06-02T17:30:00Z,29.6350,-93.6417,2.0,257.2344163,23.39831832,-99999.0,'11111222,11111222,99999999' 
TABS,ioos:station:wmo:42051:1,2007-06-02T18:00:00Z,29.6350,-93.6417,2.0,254.6878943,23.97088442,-99999.0,'11111222,11111222,99999999' 
TABS,ioos:station:wmo:42051:1,2007-06-02T18:30:00Z,29.6350,-93.6417,2.0,251.5879045,23.39769433,-99999.0,'11111222,11111222,99999999' 
TABS,ioos:station:wmo:42051:1,2007-06-02T19:00:00Z,29.6350,-93.6417,2.0,257.4255144,21.95662315,-99999.0,'11111222,11111222,99999999' 
TABS,ioos:station:wmo:42051:1,2007-06-02T19:30:00Z,29.6350,-93.6417,2.0,250.3220817,22.7484505,-99999.0,'11111222,11111222,99999999' 
TABS,ioos:station:wmo:42051:1,2007-06-02T20:00:00Z,29.6350,-93.6417,2.0,258.22543,19.84760439,-99999.0,'11111222,11111222,99999999' 
TABS,ioos:station:wmo:42051:1,2007-06-02T20:30:00Z,29.6350,-93.6417,2.0,252.7869002,22.97917536,-99999.0,'11111222,11111222,99999999' 
TABS,ioos:station:wmo:42051:1,2007-06-02T21:00:00Z,29.6350,-93.6417,2.0,250.3185701,21.23022845,-99999.0,'11111222,11111222,99999999' 
TABS,ioos:station:wmo:42051:1,2007-06-02T21:30:00Z,29.6350,-93.6417,2.0,254.1561893,21.61097175,-99999.0,'11111222,11111222,99999999' 
TABS,ioos:station:wmo:42051:1,2007-06-02T22:00:00Z,29.6350,-93.6417,2.0,263.9547379,17.56768055,-99999.0,'11111222,11111222,99999999' 
TABS,ioos:station:wmo:42051:1,2007-06-02T22:30:00Z,29.6350,-93.6417,2.0,256.4330714,14.79274484,-99999.0,'11111222,11111222,99999999' 
TABS,ioos:station:wmo:42051:1,2007-06-02T23:00:00Z,29.6350,-93.6417,2.0,259.8988588,14.31182029,-99999.0,'11111222,11111222,99999999' 
TABS,ioos:station:wmo:42051:1,2007-06-02T23:30:00Z,29.6350,-93.6417,2.0,255.2175229,12.11082986,-99999.0,'11111222,11111222,99999999' 
TABS,ioos:station:wmo:42051:1,2007-06-03T00:00:00Z,29.6350,-93.6417,2.0,252.8034861,10.82384405,-99999.0,'11111222,11111222,99999999' 
TABS,ioos:station:wmo:42051:1,2007-06-03T00:30:00Z,29.6350,-93.6417,2.0,235.688764,3.583573635,-99999.0,'11133222,11111222,99999999' 
TABS,ioos:station:wmo:42051:1,2007-06-03T01:00:00Z,29.6350,-93.6417,2.0,127.278087,3.36808551,-99999.0,'11133222,11111222,99999999' 
TABS,ioos:station:wmo:42051:1,2007-06-03T01:30:00Z,29.6350,-93.6417,2.0,116.2685071,6.914014753,-99999.0,'11133222,11111222,99999999' 
TABS,ioos:station:wmo:42051:1,2007-06-03T02:00:00Z,29.6350,-93.6417,2.0,107.198501,14.9484046,-99999.0,'11111222,11111222,99999999' 
TABS,ioos:station:wmo:42051:1,2007-06-03T02:30:00Z,29.6350,-93.6417,2.0,105.4858254,17.64041099,-99999.0,'11111222,11111222,99999999' 
TABS,ioos:station:wmo:42051:1,2007-06-03T03:00:00Z,29.6350,-93.6417,2.0,110.3148786,16.96526451,-99999.0,'11111222,11111222,99999999' 
TABS,ioos:station:wmo:42051:1,2007-06-03T03:30:00Z,29.6350,-93.6417,2.0,122.7454833,16.65713661,-99999.0,'11111222,11111222,99999999' 
TABS,ioos:station:wmo:42051:1,2007-06-03T04:00:00Z,29.6350,-93.6417,2.0,122.1923568,21.75445242,-99999.0,'11111222,11111222,99999999' 
TABS,ioos:station:wmo:42051:1,2007-06-03T04:30:00Z,29.6350,-93.6417,2.0,125.5952849,28.86314085,-99999.0,'11111222,11111222,99999999' 
TABS,ioos:station:wmo:42051:1,2007-06-03T05:00:00Z,29.6350,-93.6417,2.0,121.2305726,20.61778359,-99999.0,'11111222,11111222,99999999' 
TABS,ioos:station:wmo:42051:1,2007-06-03T05:30:00Z,29.6350,-93.6417,2.0,124.4721333,21.13049928,-99999.0,'11111222,11111222,99999999' 
TABS,ioos:station:wmo:42051:1,2007-06-03T06:00:00Z,29.6350,-93.6417,2.0,134.1585507,20.22543448,-99999.0,'11111222,11111222,99999999' 
TABS,ioos:station:wmo:42051:1,2007-06-03T06:30:00Z,29.6350,-93.6417,2.0,143.5658055,20.50859332,-99999.0,'11111222,11111222,99999999' 
TABS,ioos:station:wmo:42051:1,2007-06-03T07:00:00Z,29.6350,-93.6417,2.0,148.8687971,19.38113774,-99999.0,'11111222,11111222,99999999' 
TABS,ioos:station:wmo:42051:1,2007-06-03T07:30:00Z,29.6350,-93.6417,2.0,174.8355712,22.33064486,-99999.0,'11111222,11111222,99999999' 
TABS,ioos:station:wmo:42051:1,2007-06-03T08:00:00Z,29.6350,-93.6417,2.0,181.4639783,22.30728356,-99999.0,'11111222,11111222,99999999' 
TABS,ioos:station:wmo:42051:1,2007-06-03T08:30:00Z,29.6350,-93.6417,2.0,188.8232587,21.97000228,-99999.0,'11111222,11111222,99999999' 
TABS,ioos:station:wmo:42051:1,2007-06-03T09:00:00Z,29.6350,-93.6417,2.0,192.7934647,28.8563979,-99999.0,'11111222,11111222,99999999' 
TABS,ioos:station:wmo:42051:1,2007-06-03T09:30:00Z,29.6350,-93.6417,2.0,199.6994586,24.35547166,-99999.0,'11111222,11111222,99999999' 
TABS,ioos:station:wmo:42051:1,2007-06-03T10:00:00Z,29.6350,-93.6417,2.0,195.9668288,25.41033254,-99999.0,'11111222,11111222,99999999' 
TABS,ioos:station:wmo:42051:1,2007-06-03T10:30:00Z,29.6350,-93.6417,2.0,201.4839206,22.4713373,-99999.0,'11111222,11111222,99999999' 
TABS,ioos:station:wmo:42051:1,2007-06-03T11:00:00Z,29.6350,-93.6417,2.0,201.2192834,23.9540769,-99999.0,'11111222,11111222,99999999' 
TABS,ioos:station:wmo:42051:1,2007-06-03T11:30:00Z,29.6350,-93.6417,2.0,202.8810115,22.76100613,-99999.0,'11111222,11111222,99999999' 
TABS,ioos:station:wmo:42051:1,2007-06-03T12:00:00Z,29.6350,-93.6417,2.0,208.4990052,19.74231243,-99999.0,'11111222,11111222,99999999' 
TABS,ioos:station:wmo:42051:1,2007-06-03T12:30:00Z,29.6350,-93.6417,2.0,203.0910307,15.42590678,-99999.0,'11111222,11111222,99999999' 
TABS,ioos:station:wmo:42051:1,2007-06-03T13:00:00Z,29.6350,-93.6417,2.0,212.7452987,13.29242265,-99999.0,'11111222,11111222,99999999' 
TABS,ioos:station:wmo:42051:1,2007-06-03T13:30:00Z,29.6350,-93.6417,2.0,220.0849024,14.69112657,-99999.0,'11111222,11111222,99999999' 
TABS,ioos:station:wmo:42051:1,2007-06-03T14:00:00Z,29.6350,-93.6417,2.0,214.132777,13.98995711,-99999.0,'11111222,11111222,99999999' 
TABS,ioos:station:wmo:42051:1,2007-06-03T14:30:00Z,29.6350,-93.6417,2.0,198.5248181,16.08336408,-99999.0,'11111222,11111222,99999999' 
TABS,ioos:station:wmo:42051:1,2007-06-03T15:00:00Z,29.6350,-93.6417,2.0,204.252993,17.40630346,-99999.0,'11111222,11111222,99999999' 
TABS,ioos:station:wmo:42051:1,2007-06-03T15:30:00Z,29.6350,-93.6417,2.0,188.1817458,20.30670086,-99999.0,'11111222,11111222,99999999' 
TABS,ioos:station:wmo:42051:1,2007-06-03T16:00:00Z,29.6350,-93.6417,2.0,182.5728514,22.05223345,-99999.0,'11111222,11111222,99999999' 
TABS,ioos:station:wmo:42051:1,2007-06-03T16:30:00Z,29.6350,-93.6417,2.0,185.8010501,19.48981785,-99999.0,'11111222,11111222,99999999' 
TABS,ioos:station:wmo:42051:1,2007-06-03T17:00:00Z,29.6350,-93.6417,2.0,184.5112519,17.92554044,-99999.0,'11111222,11111222,99999999' 
TABS,ioos:station:wmo:42051:1,2007-06-03T17:30:00Z,29.6350,-93.6417,2.0,202.5427978,13.1984734,-99999.0,'11111222,11111222,99999999' 
TABS,ioos:station:wmo:42051:1,2007-06-03T18:00:00Z,29.6350,-93.6417,2.0,201.342219,7.418766744,-99999.0,'11133222,11111222,99999999' 
TABS,ioos:station:wmo:42051:1,2007-06-03T18:30:00Z,29.6350,-93.6417,2.0,203.2880705,5.868091683,-99999.0,'11133222,11111222,99999999' 
TABS,ioos:station:wmo:42051:1,2007-06-03T19:00:00Z,29.6350,-93.6417,2.0,195.5517385,4.401136217,-99999.0,'11133222,11111222,99999999' 
TABS,ioos:station:wmo:42051:1,2007-06-03T19:30:00Z,29.6350,-93.6417,2.0,115.4214066,4.705624294,-99999.0,'11133222,11111222,99999999' 
TABS,ioos:station:wmo:42051:1,2007-06-03T20:00:00Z,29.6350,-93.6417,2.0,108.0438152,9.265689397,-99999.0,'11133222,11111222,99999999' 
TABS,ioos:station:wmo:42051:1,2007-06-03T20:30:00Z,29.6350,-93.6417,2.0,92.39632713,11.4800392,-99999.0,'11111222,11111222,99999999' 
TABS,ioos:station:wmo:42051:1,2007-06-03T21:00:00Z,29.6350,-93.6417,2.0,102.0094967,18.31076732,-99999.0,'11111222,11111222,99999999' 
TABS,ioos:station:wmo:42051:1,2007-06-03T21:30:00Z,29.6350,-93.6417,2.0,95.56019027,19.71274968,-99999.0,'11111222,11111222,99999999' 
TABS,ioos:station:wmo:42051:1,2007-06-03T22:00:00Z,29.6350,-93.6417,2.0,90.40242109,22.78056189,-99999.0,'11111222,11111222,99999999' 
TABS,ioos:station:wmo:42051:1,2007-06-03T22:30:00Z,29.6350,-93.6417,2.0,87.80568779,29.25144954,-99999.0,'11111222,11111222,99999999' 
TABS,ioos:station:wmo:42051:1,2007-06-03T23:00:00Z,29.6350,-93.6417,2.0,90.4117686,29.22075461,-99999.0,'11111222,11111222,99999999' 
TABS,ioos:station:wmo:42051:1,2007-06-03T23:30:00Z,29.6350,-93.6417,2.0,84.86797129,39.90999123,-99999.0,'11111222,11111222,99999999' 
TABS,ioos:station:wmo:42051:1,2007-06-04T00:00:00Z,29.6350,-93.6417,2.0,82.51262931,42.36118978,-99999.0,'11111222,11111222,99999999' 
TABS,ioos:station:wmo:42051:1,2007-06-04T00:30:00Z,29.6350,-93.6417,2.0,83.78737029,47.12677052,-99999.0,'11111222,11111222,99999999' 
TABS,ioos:station:wmo:42051:1,2007-06-04T01:00:00Z,29.6350,-93.6417,2.0,83.17198169,47.85944525,-99999.0,'11111222,11111222,99999999' 
TABS,ioos:station:wmo:42051:1,2007-06-04T01:30:00Z,29.6350,-93.6417,2.0,81.49320236,49.68663905,-99999.0,'11111222,11111222,99999999' 
TABS,ioos:station:wmo:42051:1,2007-06-04T02:00:00Z,29.6350,-93.6417,2.0,75.23933364,52.75086445,-99999.0,'11111222,11111222,99999999' 
TABS,ioos:station:wmo:42051:1,2007-06-04T02:30:00Z,29.6350,-93.6417,2.0,76.34652731,51.55694813,-99999.0,'11111222,11111222,99999999' 
TABS,ioos:station:wmo:42051:1,2007-06-04T03:00:00Z,29.6350,-93.6417,2.0,73.98573586,58.25053648,-99999.0,'11111222,11111222,99999999' 
TABS,ioos:station:wmo:42051:1,2007-06-04T03:30:00Z,29.6350,-93.6417,2.0,73.96442126,54.0844155,-99999.0,'11111222,11111222,99999999' 
TABS,ioos:station:wmo:42051:1,2007-06-04T04:00:00Z,29.6350,-93.6417,2.0,71.51949036,63.56812566,-99999.0,'11111222,11111222,99999999' 
TABS,ioos:station:wmo:42051:1,2007-06-04T04:30:00Z,29.6350,-93.6417,2.0,70.03544257,63.49586443,-99999.0,'11111222,11111222,99999999' 
TABS,ioos:station:wmo:42051:1,2007-06-04T05:00:00Z,29.6350,-93.6417,2.0,73.44624569,67.91489159,-99999.0,'11111222,11111222,99999999' 
TABS,ioos:station:wmo:42051:1,2007-06-04T05:30:00Z,29.6350,-93.6417,2.0,70.87728554,69.0185207,-99999.0,'11111222,11111222,99999999' 
TABS,ioos:station:wmo:42051:1,2007-06-04T06:00:00Z,29.6350,-93.6417,2.0,69.81498571,63.99007736,-99999.0,'11111222,11111222,99999999' 
TABS,ioos:station:wmo:42051:1,2007-06-04T06:30:00Z,29.6350,-93.6417,2.0,71.22574949,66.7410406,-99999.0,'11111222,11111222,99999999' 
TABS,ioos:station:wmo:42051:1,2007-06-04T07:00:00Z,29.6350,-93.6417,2.0,76.27274274,66.11859799,-99999.0,'11111222,11111222,99999999' 
TABS,ioos:station:wmo:42051:1,2007-06-04T07:30:00Z,29.6350,-93.6417,2.0,75.14013209,61.4139406,-99999.0,'11111222,11111222,99999999' 
TABS,ioos:station:wmo:42051:1,2007-06-04T08:00:00Z,29.6350,-93.6417,2.0,73.46548075,61.31550293,-99999.0,'11111222,11111222,99999999' 
TABS,ioos:station:wmo:42051:1,2007-06-04T08:30:00Z,29.6350,-93.6417,2.0,74.20938164,60.52403242,-99999.0,'11111222,11111222,99999999' 
TABS,ioos:station:wmo:42051:1,2007-06-04T09:00:00Z,29.6350,-93.6417,2.0,78.9583633,56.96451703,-99999.0,'11111222,11111222,99999999' 
TABS,ioos:station:wmo:42051:1,2007-06-04T09:30:00Z,29.6350,-93.6417,2.0,78.39003628,56.54694068,-99999.0,'11111222,11111222,99999999' 
TABS,ioos:station:wmo:42051:1,2007-06-04T10:00:00Z,29.6350,-93.6417,2.0,82.26590099,54.02141983,-99999.0,'11111222,11111222,99999999' 
TABS,ioos:station:wmo:42051:1,2007-06-04T10:30:00Z,29.6350,-93.6417,2.0,87.11929047,53.12713525,-99999.0,'11111222,11111222,99999999' 
TABS,ioos:station:wmo:42051:1,2007-06-04T11:00:00Z,29.6350,-93.6417,2.0,89.64585924,45.30086533,-99999.0,'11111222,11111222,99999999' 
TABS,ioos:station:wmo:42051:1,2007-06-04T11:30:00Z,29.6350,-93.6417,2.0,94.2451164,41.20304115,-99999.0,'11111222,11111222,99999999' 
TABS,ioos:station:wmo:42051:1,2007-06-04T12:00:00Z,29.6350,-93.6417,2.0,97.83674522,37.84343668,-99999.0,'11111222,11111222,99999999' 
TABS,ioos:station:wmo:42051:1,2007-06-04T12:30:00Z,29.6350,-93.6417,2.0,99.85589914,19.86315433,-99999.0,'11111222,11111222,99999999' 
TABS,ioos:station:wmo:42051:1,2007-06-04T13:00:00Z,29.6350,-93.6417,2.0,116.2242596,19.55252413,-99999.0,'11111222,11111222,99999999' 
TABS,ioos:station:wmo:42051:1,2007-06-04T13:30:00Z,29.6350,-93.6417,2.0,107.7808008,16.89715065,-99999.0,'11111222,11111222,99999999' 
TABS,ioos:station:wmo:42051:1,2007-06-04T14:00:00Z,29.6350,-93.6417,2.0,83.2499062,10.80489704,-99999.0,'11111222,11111222,99999999' 
TABS,ioos:station:wmo:42051:1,2007-06-04T14:30:00Z,29.6350,-93.6417,2.0,87.81697899,7.87571584,-99999.0,'11133222,11111222,99999999' 
TABS,ioos:station:wmo:42051:1,2007-06-04T15:00:00Z,29.6350,-93.6417,2.0,64.25707748,12.15651677,-99999.0,'11111222,11111222,99999999' 
TABS,ioos:station:wmo:42051:1,2007-06-04T15:30:00Z,29.6350,-93.6417,2.0,75.70396725,15.5103127,-99999.0,'11111222,11111222,99999999' 
TABS,ioos:station:wmo:42051:1,2007-06-04T16:00:00Z,29.6350,-93.6417,2.0,106.7029252,14.75244048,-99999.0,'11111222,11111222,99999999' 